Location: Alexandria
(38.8050°N, 77.0470°W)
Time: 10:34:04
(UTC-05:00)

N. Korean satellite - Pass Details

Date: 19 November 2017
Orbit: 460 x 515 km, 97.2° (Epoch: 17 November)

Event Time Altitude Azimuth Distance (km) Brightness Sun altitude
Rises 18:21:28 0° 175° (S) 2,478 10.3 -17.4°
Reaches altitude 10° 18:23:31 10° 180° (S) 1,613 9.3 -17.8°
Maximum altitude 18:26:55 58° 260° (W) 554 7.1 -18.5°
Drops below altitude 10° 18:30:25 10° 340° (NNW) 1,651 9.4 -19.1°
Sets 18:32:32 0° 345° (NNW) 2,544 10.3 -19.5°
